EW5398 Weather Reports


Display with metric or nautical units.
time (UTC)temp
F
wind
direction
speed
MPH
gust
MPH
rain 1hr
in
rain 24hr
in
rain mn
in
humidity
%
barometer
mb
20181212203129 76 316 5.0 14.0 0.00 0.00 0.00 80 1014.7
20181212201552 76 325 8.0 15.0 0.00 0.00 0.00 78 1014.8
20181212200140 76 302 6.0 12.0 0.00 0.00 0.00 79 1015.1
20181212194619 75 338 6.0 12.0 0.00 0.00 0.00 80 1015.3
20181212193101 75 327 5.0 12.0 0.00 0.00 0.00 79 1015.4
20181212191559 75 335 5.0 12.0 0.00 0.00 0.00 80 1015.7
20181212190113 74 315 9.0 14.0 0.00 0.00 0.00 78 1015.8
20181212184540 75 299 8.0 17.0 0.00 0.00 0.00 76 1016.0
20181212183100 76 327 5.0 14.0 0.00 0.00 0.00 76 1016.5
20181212181524 75 34 7.0 13.0 0.00 0.00 0.00 74 1016.7
20181212180023 75 311 7.0 15.0 0.00 0.00 0.00 74 1017.1
20181212174520 75 340 9.0 16.0 0.00 0.00 0.00 74 1017.4
20181212173018 75 310 7.0 15.0 0.00 0.00 0.00 74 1017.7
20181212171507 74 280 11.0 15.0 0.00 0.00 0.00 74 1017.8
20181212170006 74 338 7.0 17.0 0.00 0.00 0.00 74 1018.0
20181212164505 74 338 11.0 16.0 0.00 0.00 0.00 74 1018.0
20181212163131 73 340 9.0 19.0 0.00 0.00 0.00 75 1018.2
20181212161639 73 315 11.0 18.0 0.00 0.00 0.00 75 1018.5
20181212160227 73 5 8.0 20.0 0.00 0.00 0.00 76 1018.6
20181212154706 72 61 10.0 18.0 0.00 0.00 0.00 75 1018.9
20181212153245 72 330 9.0 20.0 0.00 0.00 0.00 76 1018.7
20181212151653 72 325 11.0 20.0 0.00 0.00 0.00 76 1018.9
20181212150206 71 349 10.0 17.0 0.00 0.00 0.00 77 1018.9
20181212144654 71 81 8.0 14.0 0.00 0.00 0.00 79 1018.9
20181212143122 71 346 10.0 19.0 0.00 0.00 0.00 79 1018.8
20181212141642 70 316 7.0 15.0 0.00 0.00 0.00 81 1018.8
20181212140132 70 323 7.0 14.0 0.00 0.00 0.00 81 1018.7
20181212134715 69 355 8.0 14.0 0.00 0.00 0.00 84 1018.7
20181212133126 69 345 8.0 16.0 0.00 0.00 0.00 85 1018.5
20181212131625 68 57 10.0 17.0 0.00 0.00 0.00 84 1018.3
20181212130120 68 326 9.0 16.0 0.00 0.00 0.00 85 1018.1
20181212124559 68 304 8.0 17.0 0.00 0.00 0.00 86 1018.1
20181212123059 68 338 8.0 14.0 0.00 0.00 0.00 86 1018.1
20181212121616 69 335 6.0 13.0 0.00 0.00 0.00 85 1018.1
20181212120115 69 330 8.0 15.0 0.00 0.00 0.00 81 1018.1
20181212114547 69 307 9.0 19.0 0.00 0.00 0.00 80 1017.8
20181212113126 69 356 9.0 19.0 0.00 0.00 0.00 79 1017.8
20181212111547 69 325 8.0 18.0 0.00 0.00 0.00 79 1017.9
20181212110035 69 335 11.0 16.0 0.00 0.00 0.00 79 1017.8
20181212104624 69 338 10.0 17.0 0.00 0.00 0.00 80 1017.7
20181212103056 69 27 9.0 16.0 0.00 0.00 0.00 80 1017.8
20181212101540 69 325 8.0 18.0 0.00 0.00 0.00 80 1017.8
20181212100027 70 299 9.0 20.0 0.00 0.00 0.00 79 1017.8
20181212094534 70 349 8.0 19.0 0.00 0.00 0.00 79 1017.9
20181212093029 70 338 9.0 20.0 0.00 0.00 0.00 81 1017.9
20181212091522 70 5 9.0 19.0 0.00 0.00 0.00 79 1017.7
20181212084537 70 320 10.0 19.0 0.00 0.00 0.00 77 1017.7
20181212083049 70 304 10.0 19.0 0.00 0.00 0.00 78 1017.7
20181212081517 70 338 12.0 21.0 0.00 0.00 0.00 76 1017.9
20181212080012 70 323 7.0 19.0 0.00 0.00 0.00 77 1018.1
20181212074519 70 333 9.0 18.0 0.00 0.00 0.00 76 1018.1
20181212073008 70 338 10.0 20.0 0.00 0.00 0.00 77 1018.3
20181212071502 70 336 10.0 20.0 0.00 0.00 0.00 77 1018.6
20181212070148 70 325 8.0 19.0 0.00 0.00 0.00 77 1018.7
20181212064657 70 310 10.0 17.0 0.00 0.00 0.00 77 1018.9
20181212063312 70 14 7.0 14.0 0.00 0.00 0.00 77 1019.1
20181212061640 70 343 7.0 15.0 0.00 0.00 0.00 77 1019.3
20181212060218 70 33 6.0 12.0 0.00 0.00 0.00 78 1019.5
20181212054726 71 325 5.0 15.0 0.00 0.00 0.00 76 1019.6
20181212053115 71 318 7.0 16.0 0.00 0.00 0.00 76 1019.8
20181212051603 71 342 7.0 15.0 0.00 0.00 0.00 76 1019.9
20181212050141 71 338 6.0 15.0 0.00 0.00 0.00 75 1020.1
20181212044618 71 328 7.0 17.0 0.00 0.00 0.00 75 1020.2
20181212043138 71 23 8.0 16.0 0.00 0.00 0.00 74 1020.3
20181212041615 71 342 7.0 14.0 0.00 0.00 0.00 75 1020.3
20181212040143 71 305 8.0 15.0 0.00 0.00 0.00 75 1020.4
20181212034715 71 329 9.0 16.0 0.00 0.00 0.00 75 1020.3
20181212033124 72 333 6.0 13.0 0.00 0.00 0.00 75 1020.5
20181212031701 72 356 5.0 13.0 0.00 0.00 0.00 75 1020.7
20181212030150 72 347 5.0 12.0 0.00 0.00 0.00 75 1020.7
20181212024612 72 25 7.0 15.0 0.00 0.00 0.00 75 1020.6
20181212023132 72 354 7.0 14.0 0.00 0.00 0.00 75 1020.6
20181212021622 72 13 5.0 14.0 0.00 0.00 0.00 74 1020.6
20181212020056 72 319 4.0 11.0 0.00 0.00 0.00 74 1020.5
20181212014645 72 330 7.0 15.0 0.00 0.00 0.00 74 1020.4
20181212013057 72 333 5.0 13.0 0.00 0.00 0.00 74 1020.2
20181212011628 72 325 5.0 12.0 0.00 0.00 0.00 74 1020.2
20181212010054 72 30 4.0 13.0 0.00 0.00 0.00 75 1020.2
20181212004556 73 352 7.0 14.0 0.00 0.00 0.00 75 1020.0
20181212003106 73 352 6.0 13.0 0.00 0.00 0.00 74 1019.9
20181212001624 73 338 5.0 14.0 0.00 0.00 0.00 74 1019.8
20181212000128 73 344 2.0 8.0 0.00 0.00 0.00 75 1019.8
20181211234559 73 329 4.0 10.0 0.00 0.00 0.00 74 1019.5
20181211233122 73 322 6.0 14.0 0.00 0.00 0.00 74 1019.4
20181211231549 74 352 4.0 10.0 0.00 0.00 0.00 73 1019.2
20181211230124 74 8 4.0 15.0 0.00 0.00 0.00 72 1019.2
20181211224545 75 345 6.0 17.0 0.00 0.00 0.00 72 1019.2
20181211223043 75 333 11.0 20.0 0.00 0.00 0.00 71 1019.0
20181211221536 75 330 8.0 18.0 0.00 0.00 0.00 70 1019.0
20181211220058 76 340 11.0 18.0 0.00 0.00 0.00 69 1018.9
20181211214544 76 7 9.0 17.0 0.00 0.00 0.00 69 1018.8
20181211213059 76 304 12.0 20.0 0.00 0.00 0.00 68 1018.8
20181211211558 76 345 14.0 22.0 0.00 0.00 0.00 67 1019.0
20181211204547 76 354 10.0 20.0 0.00 0.00 0.00 67 1019.2